Regional Weather Roundup
Issued by NWS Upton, NY

Home | Current Version | Previous Version | Text Only | Print | Product List | Glossary On
Versions: 1 2 3 4 5 6 7 8 9 10 11 12 13 14 15 16 17 18 19 20 21 22 23 24 25 26 27 28 29 30 31 32 33 34 35 36 37 38 39 40 41 42 43 44 45 46 47 48 49 50
000
ASUS41 KOKX 220005
RWROKX

REGIONAL WEATHER ROUNDUP
NATIONAL WEATHER SERVICE NEW YORK NY
800 PM EDT SUN SEP 21 2014

NOTE: "FAIR" INDICATES FEW OR NO CLOUDS BELOW 12,000 FEET WITH NO
SIGNIFICANT WEATHER AND/OR OBSTRUCTIONS TO VISIBILITY.

NYZ071-072-176-178-NJZ106-104-220100-
NEW YORK CITY METRO AREA


CITY           SKY/WX    TMP DP  RH WIND       PRES   REMARKS
CENTRAL PARK   MOCLDY    72  65  78 VRB3      29.65R
LAGUARDIA APRT MOCLDY    74  66  76 S7        29.62R
KENNEDY INTL   MOCLDY    70  68  93 S5        29.62S
NEWARK/LIBERTY MOCLDY    72  67  84 S5        29.62R
BRNX BOT. GARD   N/A     68  66  94 E2        29.63F
TETERBORO      MOCLDY    72  65  78 S3        29.61R
$$

NYZ177-179-078>081-220100-
LONG ISLAND NEW YORK

CITY           SKY/WX    TMP DP  RH WIND       PRES   REMARKS
FARMINGDALE    CLOUDY    72  68  87 S3        29.62R
ISLIP          MOCLDY    70  67  90 SW3       29.60R
SHIRLEY        MOCLDY    71  68  90 CALM      29.62S
WESTHAMPTON    CLOUDY    70  67  90 W5        29.62F
MONTAUK POINT    N/A     68  67  96 CALM      29.62F
$$

NYZ052-065-067-220100-
HUDSON VALLEY

CITY           SKY/WX    TMP DP  RH WIND       PRES   REMARKS
WHITE PLAINS   CLOUDY    68  66  93 CALM      29.63R FOG
NEWBURGH       PTCLDY    70  68  94 CALM      29.63S
MONTGOMERY     PTCLDY    70  64  81 CALM      29.61R
POUGHKEEPSIE   MOCLDY    67  65  93 SE5       29.60R
ALBANY         MOCLDY    75  65  70 S10       29.58F
$$

NJZ001-105-106-008-010-013-015-019>022-104-220100-
NEW JERSEY

CITY           SKY/WX    TMP DP  RH WIND       PRES   REMARKS
NEWARK/LIBERTY MOCLDY    72  67  84 S5        29.62R
TETERBORO      MOCLDY    72  65  78 S3        29.61R
CALDWELL       PTCLDY    70  65  84 CALM      29.63R
MORRISTOWN     PTCLDY    70  66  88 CALM      29.63R
SOMERVILLE     PTCLDY    68  65  90 CALM      29.61R
LINDEN         FAIR      75  69  82 CALM      29.64S
SUSSEX         PTCLDY    70  62  76 CALM      29.62S
ANDOVER          N/A     66  62  87 CALM      29.64R
TRENTON        CLEAR     71  65  81 S3        29.63S
MILLVILLE      CLEAR     70  67  90 SW3       29.66R
ATLANTIC CITY  CLEAR     71  68  90 CALM      29.65R
WRIGHTSTOWN    PTCLDY    68  68  99 S3        29.62S
TOMS RIVER     MOCLDY    68  66  94 CALM      29.64S
BELMAR         MOCLDY    70  64  83 SW3       29.64S
$$

PAZ047>061-062-071-220100-
EASTERN PENNSYLVANIA

CITY           SKY/WX    TMP DP  RH WIND       PRES   REMARKS
PHILADELPHIA   MOCLDY    74  66  76 SW6       29.65R
ALLENTOWN      PTCLDY    68  58  70 SW3       29.63R
SCRANTON       MOCLDY    74  61  63 S6        29.63R
$$

CTZ002-004>006-009-010-012-RIZ004-006-007-MAZ004-011-015-220100-
SOUTHERN NEW ENGLAND
 IN CT

CITY           SKY/WX    TMP DP  RH WIND       PRES   REMARKS
BRADLEY INTL   MOCLDY    72  68  87 CALM      29.61S
HARTFORD       CLOUDY    70  69  97 MISG      29.60F
DANBURY        CLOUDY    67  66  97 CALM      29.64R FOG
WTRBRY/OXFORD  PTCLDY    68  63  83 CALM      29.64F
BRIDGEPORT     MOCLDY    71  69  93 SE3       29.61S
MERIDEN        MOCLDY    69  67  93 CALM      29.61S
NEW HAVEN      CLOUDY    72  69  90 CALM      29.62R
CHESTER        FAIR      70  68  94 CALM      29.63S
GROTON         CLOUDY    67  66  97 CALM      29.60F
WILLIMANTIC    CLOUDY    71  68  90 MISG      29.62S

 IN RI

CITY           SKY/WX    TMP DP  RH WIND       PRES   REMARKS
PROVIDENCE     CLOUDY    69  68  96 SE3       29.62F FOG
BLOCK ISLAND   CLOUDY    68  64  88 CALM      29.62S
WESTERLY       CLOUDY    69  67  93 CALM      29.61F

 IN MA

CITY           SKY/WX    TMP DP  RH WIND       PRES   REMARKS
BOSTON         CLOUDY    67  65  93 E5        29.62S
WORCESTER      CLOUDY    68  67  96 CALM      29.65F
WESTFIELD      CLOUDY    70  68  93 S3        29.61S
PROVINCETOWN   CLOUDY    66  64  94 SE5       29.63F
NANTUCKET      LGT RAIN  66  65  96 E6        29.60F
$$

ANZ330-335-338-340-345-350-353-355-220100-
COASTAL MARINE OBSERVATIONS


STATION/POSITION TIME  SKY/WX   TEMP    WIND        PRES    VSBY  WAVE
                                AIR SEA DIR/SP/G                  HT/PER
                 (UTC)          (F)     (DEG/KT/KT) (MB)    (MI)  (FT/S)
NY HARB ENTRANCE 0000            71 71  160/  4/  6 1003.4          4/ 7
4S FIRE IS       0000               71                N/A           4/ 7
20S FIRE ISLAND  0000            69 69   CALM  /  2 1003.4          4/ 8
23SW MTP         0000                                 N/A           5/ 7
HUDSON CANYON    0000            70 71  340/ 10/ 12 1002.1          4/ 8
EXECUTION ROCKS  0000            71 70  280/  2/  2   N/A
WESTERN LI SOUND 0000            72     180/  2/  4   N/A           1
CENTRAL LI SOUND 2300            70 71  130/  4/  4   N/A           1
EASTERN LI SOUND 2300            69 69  100/  6/ 10   N/A
ROBBINS REEF     0000            72     190/  4/  5 1001.9
$$


>>>>>>>>>>>>>>>>>>>>>>>>>>>> KEY <<<<<<<<<<<<<<<<<<<<<<<<<<<
>                                                          <
>     SKY/WX - SKY CONDITION/PRESENT WEATHER               <
>     TMP    - TEMPERATURE IN FAHRENHEIT                   <
>     DP     - DEWPOINT IN FAHRENHEIT                      <
>     RH     - RELATIVE HUMIDITY IN PERCENT                <
>     WIND   - DIRECTION AND SPEED IN MPH                  <
>     PRES   - MEAN SEA LEVEL PRESSURE IN INCHES OF HG     <
>     WCI    - WIND CHILL INDEX                            <
>     VSB    - VISIBILITY IN MILES                         <
>     HX     - HEAT INDEX                                  <
>     TC     - TEMPERATURE IN CELSIUS                      <
>     VRB    - VARIABLE WIND DIRECTION                     <
>                                                          <
>>>>>>>>>>>>>>>>>>>>>>>>>>>> KEY <<<<<<<<<<<<<<<<<<<<<<<<<<<





USA.gov is the U.S. government's official web portal to all federal, state and local government web resources and services.